Ketchikan, AK

12:18 AM AKST on December 16, 2018 (GMT -0900)
Ketchikan International

Weather History for PAKT - September, 2018

Change the Weather History Date:

Friday, September 28, 2018

  Actual Average Record
Temperature  
Mean Temperature 58 °F -  
Max Temperature 64 °F 56 °F 66 °F (1949)
Min Temperature 52 °F 44 °F 23 °F (1971)
Degree Days  
Heating Degree Days 7    
Growing Degree Days 8 (Base 50)    
Moisture  
Dew Point 51 °F    
Average Humidity 82    
Maximum Humidity 94    
Minimum Humidity 63    
Precipitation  
Precipitation 0.00 in - - ()
Sea Level Pressure  
Sea Level Pressure 30.12 in    
Wind  
Wind Speed 9 mph (NW)    
Max Wind Speed 15 mph    
Max Gust Speed 21 mph    
Visibility 10 miles    
Events      
Averages and records for this station are not official NWS values.
T = Trace of Precipitation, MM = Missing Value Source: NWS Daily Summary

Daily Weather History Graph

Daily Weather History Graph

Search for Another Location

Airport or City:

Astronomy

Sep. 28, 2018 Rise Set
Actual Time 6:44 AM AKDT 6:29 PM AKDT
Civil Twilight 6:07 AM AKDT 7:05 PM AKDT
Nautical Twilight 5:24 AM AKDT 7:48 PM AKDT
Astronomical Twilight 4:40 AM AKDT 8:33 PM AKDT
Moon 8:24 PM AKDT (9/28) 10:47 AM AKDT (9/28)
Length of Visible Light 12h 58m
Length of Day
11h 45m
Waning Gibbous, 86% of the Moon is Illuminated
Sep 28
Waning Gibbous
Oct 2
Last Quarter
Oct 8
New
Oct 16
First Quarter
Oct 24
Full

Hourly Weather History & Observations

Time (AKDT) Temp. Dew Point Humidity Pressure Visibility Wind Dir Wind Speed Gust Speed Precip Events Conditions
12:53 AM 52.0 °F 50.0 °F 93% 30.24 in 10.0 mi NW 5.8 mph - N/A   Clear
1:24 AM 53.6 °F 51.8 °F 94% 30.23 in 10.0 mi WNW 6.9 mph - N/A   Partly Cloudy
1:53 AM 53.1 °F 51.1 °F 93% 30.23 in 10.0 mi NW 6.9 mph - N/A   Clear
2:08 AM 53.1 °F 51.1 °F 93% 30.23 in 10.0 mi NW 8.1 mph - N/A   Partly Cloudy
2:53 AM 53.1 °F 51.1 °F 93% 30.22 in 10.0 mi NNW 9.2 mph - N/A   Clear
3:53 AM 54.0 °F 51.1 °F 90% 30.20 in 10.0 mi NNW 10.4 mph - N/A   Clear
4:53 AM 54.0 °F 51.1 °F 90% 30.19 in 10.0 mi NNW 8.1 mph - N/A   Clear
5:53 AM 53.1 °F 51.1 °F 93% 30.18 in 10.0 mi NW 6.9 mph - N/A   Clear
6:10 AM 53.6 °F 51.8 °F 94% 30.17 in 10.0 mi NW 9.2 mph - N/A   Partly Cloudy
6:53 AM 53.6 °F 51.8 °F 94% 30.16 in 10.0 mi NW 9.2 mph - N/A   Partly Cloudy
7:53 AM 53.6 °F 51.8 °F 94% 30.16 in 10.0 mi NNW 11.5 mph - N/A   Scattered Clouds
8:53 AM 55.4 °F 51.8 °F 88% 30.15 in 10.0 mi NNW 13.8 mph - N/A   Scattered Clouds
10:53 AM 60.8 °F 51.8 °F 72% 30.13 in 10.0 mi NNW 10.4 mph - N/A   Scattered Clouds
11:53 AM 62.6 °F 51.8 °F 68% 30.12 in 10.0 mi NNW 15.0 mph 20.7 mph N/A   Scattered Clouds
12:53 PM 60.8 °F 51.8 °F 72% 30.11 in 10.0 mi North 11.5 mph - N/A   Partly Cloudy
1:53 PM 62.6 °F 51.8 °F 68% 30.09 in 10.0 mi NW 13.8 mph - N/A   Partly Cloudy
2:53 PM 62.6 °F 51.8 °F 68% 30.07 in 10.0 mi NNW 13.8 mph - N/A   Clear
3:53 PM 64.0 °F 51.1 °F 63% 30.05 in 10.0 mi NW 9.2 mph 18.4 mph N/A   Partly Cloudy
4:53 PM 62.1 °F 51.1 °F 67% 30.04 in 10.0 mi NW 9.2 mph - N/A   Partly Cloudy
5:53 PM 60.1 °F 51.1 °F 72% 30.03 in 10.0 mi WNW 11.5 mph 18.4 mph N/A   Partly Cloudy
6:53 PM 59.0 °F 50.0 °F 72% 30.03 in 10.0 mi WNW 11.5 mph - N/A   Clear
7:53 PM 57.9 °F 48.9 °F 72% 30.03 in 10.0 mi WNW 10.4 mph - N/A   Clear
8:53 PM 55.9 °F 50.0 °F 80% 30.03 in 10.0 mi NNW 12.7 mph - N/A   Clear
9:53 PM 54.0 °F 48.9 °F 83% 30.03 in 10.0 mi NW 8.1 mph - N/A   Clear
10:53 PM 53.1 °F 48.9 °F 86% 30.03 in 10.0 mi NW 11.5 mph - N/A   Clear
11:53 PM 52.0 °F 46.9 °F 83% 30.03 in 10.0 mi NW 10.4 mph - N/A   Clear